Home   Weather   Darmstadt   Past weeks
Flag for Germany

Past Weather in Darmstadt, Hesse, Germany — Yesterday and Last 2 Weeks

Now
77 °F

Sunny.


Feels Like: 78 °F
Forecast: 86 / 61 °F
Wind: 14 mph from Southwest

Location: Frankfurt-M-Flughafen Airport

Current Time: Jul 19, 2019 at 6:45:26 pm

Latest Report: Jul 19, 2019 at 6:20 pm


Visibility: 10 mi

Pressure: 29.95 "Hg

Humidity: 42%

Dew Point: 52 °F

Location of DarmstadtLocation

Past Weather in Darmstadt — Graph

°F

Darmstadt Temperature Yesterday

Maximum temperature yesterday: 82 °F (at 2:20 pm)
Minimum temperature yesterday: 57 °F (at 6:20 am)
Average temperature yesterday: 70 °F

High & Low Weather Summary for the Past Weeks

 TemperatureHumidityPressure
High88 °F (Jul 6, 3:20 pm)100% (Jul 12, 1:20 am)30.12 "Hg (Jul 12, 1:20 am)
Low45 °F (Jul 10, 4:20 am)13% (Jul 6, 2:20 pm)29.77 "Hg (Jul 6, 4:50 pm)
Average66 °F62%29.99 "Hg
* Reported Jul 4 5:20 pm — Jul 19 5:50 pm, Darmstadt. Weather by CustomWeather, © 2019

Note: Actual official high and low records may vary slightly from our data, if they occured in-between our weather recording intervals... More about our weather records

Advertising

Darmstadt Weather History for the Previous 24 Hours

Scroll right to see more
 ConditionsComfort  
Time TempWeatherWind HumidityBarometerVisibility
5:50 pm
Fri, Jul 19
79 °FPassing clouds.12 mph42%29.95 "HgN/A
5:20 pm77 °FPassing clouds.13 mph44%29.95 "HgN/A
4:50 pm79 °FPassing clouds.10 mph45%29.95 "HgN/A
4:20 pm77 °FPassing clouds.12 mph51%29.95 "HgN/A
3:50 pm77 °FPassing clouds.14 mph51%29.98 "HgN/A
3:20 pm77 °FPassing clouds.10 mph54%29.98 "HgN/A
2:50 pm77 °FPassing clouds.12 mph54%29.98 "HgN/A
2:20 pm75 °FScattered showers. Passing clouds.7 mph57%29.98 "HgN/A
1:50 pm72 °FSprinkles. Scattered clouds.9 mph69%29.98 "HgN/A
1:20 pm72 °FScattered showers. Scattered clouds.10 mph65%29.98 "HgN/A
12:50 pm72 °FScattered clouds.6 mph69%29.98 "HgN/A
12:20 pm70 °FScattered clouds.7 mph73%29.98 "HgN/A
11:50 am70 °FScattered clouds.7 mph78%29.98 "HgN/A
11:20 am66 °FScattered clouds.7 mph88%29.98 "HgN/A
10:50 am64 °FPassing clouds.6 mph94%29.98 "HgN/A
10:20 am64 °FBroken clouds.7 mph94%29.98 "HgN/A
9:50 am63 °FBroken clouds.5 mph94%29.98 "HgN/A
9:20 am63 °FRain showers. Partly sunny.8 mph94%29.98 "Hg3 mi
8:50 am64 °FLight rain. Partly sunny.8 mph88%29.98 "HgN/A
8:20 am64 °FPassing clouds.3 mph94%29.98 "HgN/A
7:50 am64 °FLight rain. Clear.1 mph88%29.95 "HgN/A
7:20 am63 °FLight rain. Passing clouds.3 mph94%29.95 "HgN/A
6:50 am63 °FLight rain. Clear.2 mph94%29.95 "HgN/A
6:20 am63 °FLight rain. Clear.3 mph88%29.95 "HgN/A
5:50 am64 °FSunny.1 mph78%29.95 "Hg10 mi
5:20 am64 °FClear.2 mph78%29.92 "Hg10 mi
4:50 am64 °FLight rain. Clear.6 mph78%29.92 "HgN/A
4:20 am64 °FClear.2 mph78%29.92 "Hg10 mi
3:50 am64 °FClear.3 mph78%29.92 "Hg10 mi
3:20 am64 °FClear.6 mph78%29.92 "Hg10 mi
2:50 am64 °FClear.3 mph78%29.92 "Hg10 mi
2:20 am64 °FClear.3 mph78%29.92 "Hg10 mi
1:50 am64 °FClear.2 mph78%29.92 "Hg10 mi
1:20 am66 °FClear.2 mph73%29.92 "Hg10 mi
12:50 am66 °FClear.3 mph73%29.92 "Hg10 mi
12:20 am68 °FClear.2 mph69%29.92 "Hg10 mi
11:50 pm
Thu, Jul 18
68 °FClear.5 mph69%29.92 "Hg10 mi
11:20 pm68 °FClear.5 mph69%29.92 "Hg10 mi
10:50 pm70 °FClear.5 mph64%29.92 "Hg10 mi
10:20 pm70 °FClear.2 mph60%29.89 "Hg10 mi
9:50 pm72 °FSprinkles. Passing clouds.2 mph61%29.89 "HgN/A
9:20 pm73 °FSunny.8 mph50%29.89 "Hg10 mi
8:50 pm75 °FSunny.7 mph47%29.89 "Hg10 mi
8:20 pm77 °FPassing clouds.8 mph42%29.89 "HgN/A
7:50 pm77 °FPassing clouds.7 mph42%29.86 "HgN/A
7:20 pm79 °FSunny.12 mph37%29.89 "Hg10 mi
6:50 pm81 °FPassing clouds.15 mph32%29.86 "HgN/A
6:20 pm81 °FPassing clouds.6 mph37%29.86 "HgN/A
Weather by CustomWeather, © 2019

See weather overview